Weather History for KI75 - January, 2013

Change the Weather History Date:

Thursday, January 17, 2013

  Actual Average (KLWD) Record (KLWD)
Temperature  
Mean Temperature 28 °F 24 °F  
Max Temperature 38 °F 33 °F 55 °F (1986)
Min Temperature 19 °F 15 °F -16 °F (1977)
Degree Days  
Heating Degree Days 36 41  
Month to date heating degree days 697  
Since 1 July heating degree days 3126  
Cooling Degree Days 0 0  
Month to date cooling degree days 0  
Year to date cooling degree days 0  
Moisture  
Dew Point 19 °F    
Average Humidity 68    
Maximum Humidity 90    
Minimum Humidity 38    
Precipitation  
Precipitation 0.00 in 0.02 in 0.14 in (1969)
Month to date precipitation 0.34  
Sea Level Pressure  
Sea Level Pressure 30.36 in    
Wind  
Wind Speed 9 mph (NW)    
Max Wind Speed 18 mph    
Max Gust Speed 24 mph    
Visibility 10 miles    
Events      
T = Trace of Precipitation, MM = Missing Value Source: NWS Daily Summary

Daily Weather History Graph

Daily Weather History Graph

Search for Another Location

Airport or City:

Trip Planner

Search our weather history database for the weather conditions in past years. The results will help you decide how hot, cold, wet, or windy it might be!

Date:

Astronomy

Jan. 17, 2013 Rise Set
Actual Time 7:36 AM CST 5:13 PM CST
Civil Twilight 7:06 AM CST 5:43 PM CST
Nautical Twilight 6:32 AM CST 6:17 PM CST
Astronomical Twilight 5:59 AM CST 6:50 PM CST
Moon 10:40 AM CST (1/17) No Moon Set
Length of Visible Light 10h 37m
Length of Day
9h 37m
Waxing Crescent, 38% of the Moon is Illuminated
Jan 17
Waxing Crescent
Jan 18
First Quarter
Jan 26
Full
Feb 3
Last Quarter
Feb 10
New

Hourly Weather History & Observations

Time (CST) Temp. Windchill Dew Point Humidity Pressure Visibility Wind Dir Wind Speed Gust Speed Precip Events Conditions
12:15 AM 32.9 °F 21.6 °F 29.1 °F 86% 30.18 in 10.0 mi NNW 18.4 mph 24.2 mph N/A   Overcast
12:35 AM 32.5 °F 23.2 °F 28.9 °F 87% 30.19 in 10.0 mi NNW 12.7 mph 18.4 mph N/A   Overcast
12:55 AM 32.2 °F 23.8 °F 28.4 °F 86% 30.20 in 10.0 mi NNW 10.4 mph - N/A   Overcast
1:15 AM 31.8 °F 24.6 °F 27.5 °F 84% 30.22 in 10.0 mi NNW 8.1 mph - N/A   Mostly Cloudy
1:35 AM 30.2 °F 25.4 °F 27.1 °F 88% 30.22 in 10.0 mi North 4.6 mph - N/A   Scattered Clouds
1:55 AM 28.9 °F 20.4 °F 26.2 °F 90% 30.23 in 10.0 mi NW 9.2 mph - N/A   Scattered Clouds
2:15 AM 29.3 °F 20.2 °F 26.2 °F 88% 30.24 in 10.0 mi NW 10.4 mph - N/A   Scattered Clouds
2:35 AM 29.1 °F 19.4 °F 25.7 °F 87% 30.25 in 10.0 mi NNW 11.5 mph - N/A   Mostly Cloudy
2:55 AM 28.4 °F 18.0 °F 24.8 °F 86% 30.26 in 10.0 mi NNW 12.7 mph - N/A   Mostly Cloudy
3:35 AM 28.0 °F 18.6 °F 25.0 °F 88% 30.26 in 10.0 mi NNW 10.4 mph - N/A   Overcast
3:55 AM 27.7 °F 18.8 °F 24.6 °F 88% 30.28 in 10.0 mi NNW 9.2 mph - N/A   Overcast
4:15 AM 27.1 °F 17.5 °F 23.7 °F 87% 30.29 in 10.0 mi NNW 10.4 mph - N/A   Overcast
4:35 AM 26.4 °F 18.0 °F 23.0 °F 87% 30.30 in 10.0 mi NW 8.1 mph - N/A   Overcast
4:55 AM 25.5 °F 15.5 °F 21.7 °F 86% 30.31 in 10.0 mi NNW 10.4 mph - N/A   Overcast
5:15 AM 24.1 °F 18.2 °F 20.8 °F 87% 30.31 in 10.0 mi North 4.6 mph - N/A   Scattered Clouds
5:35 AM 23.0 °F 13.9 °F 19.9 °F 88% 30.33 in 10.0 mi NNW 8.1 mph - N/A   Clear
5:55 AM 23.5 °F 13.0 °F 19.8 °F 85% 30.35 in 10.0 mi NNW 10.4 mph - N/A   Mostly Cloudy
6:15 AM 23.5 °F 11.8 °F 18.0 °F 79% 30.36 in 10.0 mi NNW 12.7 mph - N/A   Overcast
6:35 AM 22.5 °F 11.7 °F 16.9 °F 79% 30.37 in 10.0 mi NNW 10.4 mph - N/A   Mostly Cloudy
6:55 AM 21.2 °F 10.1 °F 16.3 °F 82% 30.38 in 10.0 mi NNW 10.4 mph - N/A   Scattered Clouds
7:15 AM 20.7 °F 11.9 °F 15.8 °F 81% 30.38 in 10.0 mi NNW 6.9 mph - N/A   Clear
7:35 AM 20.1 °F 12.3 °F 15.4 °F 82% 30.38 in 10.0 mi NNW 5.8 mph - N/A   Clear
7:55 AM 19.8 °F 11.9 °F 15.4 °F 83% 30.39 in 10.0 mi NNW 5.8 mph - N/A   Clear
8:15 AM 20.8 °F 14.4 °F 16.0 °F 81% 30.40 in 10.0 mi NNW 4.6 mph - N/A   Clear
8:35 AM 21.6 °F 15.3 °F 16.0 °F 79% 30.41 in 10.0 mi NW 4.6 mph - N/A   Clear
8:55 AM 22.5 °F 17.8 °F 15.8 °F 76% 30.43 in 10.0 mi WNW 3.5 mph - N/A   Clear
9:15 AM 23.0 °F - 15.1 °F 72% 30.43 in 10.0 mi Calm Calm - N/A   Clear
9:35 AM 24.4 °F 16.5 °F 15.4 °F 69% 30.44 in 10.0 mi NW 6.9 mph - N/A   Clear
9:55 AM 25.3 °F 18.5 °F 14.5 °F 64% 30.45 in 10.0 mi WNW 5.8 mph - N/A   Clear
10:15 AM 25.7 °F 19.0 °F 14.7 °F 63% 30.45 in 10.0 mi West 5.8 mph - N/A   Mostly Cloudy
10:35 AM 27.1 °F 23.2 °F 13.6 °F 57% 30.45 in 10.0 mi WNW 3.5 mph - N/A   Overcast
10:55 AM 28.2 °F 23.1 °F 12.6 °F 52% 30.44 in 10.0 mi West 4.6 mph - N/A   Overcast
11:15 AM 30.4 °F 26.9 °F 11.5 °F 45% 30.43 in 10.0 mi WSW 3.5 mph - N/A   Scattered Clouds
11:35 AM 31.3 °F 26.6 °F 10.4 °F 42% 30.43 in 10.0 mi WSW 4.6 mph - N/A   Scattered Clouds
11:55 AM 33.4 °F 29.1 °F 10.2 °F 38% 30.41 in 10.0 mi WNW 4.6 mph - N/A   Scattered Clouds
12:15 PM 34.0 °F 28.0 °F 12.4 °F 41% 30.41 in 10.0 mi NNW 6.9 mph - N/A   Clear
12:35 PM 34.9 °F 29.0 °F 13.3 °F 41% 30.40 in 10.0 mi NW 6.9 mph - N/A   Clear
12:55 PM 35.8 °F 30.1 °F 12.6 °F 38% 30.39 in 10.0 mi NNW 6.9 mph - N/A   Clear
1:15 PM 36.3 °F 31.6 °F 14.4 °F 41% 30.39 in 10.0 mi WNW 5.8 mph - N/A   Clear
1:35 PM 37.2 °F 32.6 °F 15.1 °F 40% 30.39 in 10.0 mi WNW 5.8 mph - N/A   Clear
1:55 PM 37.2 °F 33.6 °F 15.6 °F 41% 30.38 in 10.0 mi NW 4.6 mph - N/A   Clear
2:15 PM 38.1 °F 33.7 °F 16.3 °F 41% 30.38 in 10.0 mi NW 5.8 mph - N/A   Clear
2:35 PM 38.5 °F 34.1 °F 16.5 °F 41% 30.38 in 10.0 mi WNW 5.8 mph - N/A   Clear
2:55 PM 38.3 °F - 16.2 °F 41% 30.39 in 10.0 mi Calm Calm - N/A   Mostly Cloudy
3:15 PM 37.8 °F - 16.3 °F 42% 30.39 in 10.0 mi Calm Calm - N/A   Mostly Cloudy
3:35 PM 38.5 °F - 16.3 °F 41% 30.38 in 10.0 mi Calm Calm - N/A   Scattered Clouds
3:55 PM 38.8 °F - 16.7 °F 41% 30.38 in 10.0 mi Calm Calm - N/A   Clear
4:55 PM 37.2 °F - 20.8 °F 52% 30.39 in 10.0 mi Calm Calm - N/A   Clear
5:35 PM 34.2 °F - 19.6 °F 55% 30.40 in 10.0 mi Calm Calm - N/A   Clear
7:55 PM 30.9 °F 26.2 °F 21.0 °F 67% 30.38 in 10.0 mi South 4.6 mph - N/A   Clear
8:15 PM 30.6 °F 25.8 °F 21.2 °F 68% 30.38 in 10.0 mi South 4.6 mph - N/A   Clear
8:55 PM 30.4 °F 25.6 °F 21.4 °F 69% 30.37 in 10.0 mi South 4.6 mph - N/A   Clear
9:15 PM 29.1 °F 24.1 °F 21.4 °F 73% 30.38 in 10.0 mi South 4.6 mph - N/A   Clear
9:35 PM 28.2 °F 22.0 °F 21.2 °F 75% 30.37 in 10.0 mi South 5.8 mph - N/A   Clear
9:55 PM 29.3 °F 22.3 °F 22.1 °F 75% 30.36 in 10.0 mi South 6.9 mph - N/A   Clear
11:15 PM 29.1 °F 23.0 °F 22.8 °F 77% 30.35 in 10.0 mi South 5.8 mph - N/A   Clear
11:35 PM 29.3 °F 22.3 °F 23.4 °F 78% 30.35 in 10.0 mi South 6.9 mph - N/A   Clear
11:55 PM 29.3 °F 22.3 °F 23.5 °F 79% 30.35 in 10.0 mi South 6.9 mph - N/A   Clear